パンスターズ彗星

C/2017 K2 ( PanSTARRS )

English version
Home page
Updated on July 30, 2018

---------------------------------------------------------------------

・ プロフィール

発見日 2017年5月21日
発見光度 20.8等
発見者 Pan-STARRS 1 telescope (Haleakala)

・ 写真集

・ 軌道要素

Epoch 2022 Dec. 7.0 TT = JDT 2459920.5
T 2022 Dec. 19.66670 TT                                 MPCW
q   1.7969679            (2000.0)            P               Q
z  -0.0004788      Peri.  236.19629     +0.01817040     +0.04924753
 +/-0.0000057      Node    88.23426     -0.18096354     +0.98245255
e   1.0008603      Incl.   87.56318     -0.98332194     -0.17989351
From 471 observations 2013 May 12-2018 Mar. 25, mean residual 0".5.

・ 星図

・ 光度変化

        m1 = 1.0 + 5 logΔ + 10.0 log r

---------------------------------------------------------------------

軌道要素はM.P.E.C. 2018-F152に掲載されたものです。
星図はステラナビゲータ Ver.10 (アストロアーツ) で作成したものです。
光度グラフはComet for Windowsで作成したものです。

---------------------------------------------------------------------

Copyright(C) Seiichi Yoshida (comet@aerith.net). All rights reserved.